Tracking 28365 objects as of 6-Dec-2023
HD Live streaming from Space Station
objects crossing your sky now

COSMOS 1980

Track COSMOS 1980 now!
10-day predictions
COSMOS 1980 is classified as:


NORAD ID: 19649
Int'l Code: 1988-102A
Perigee: 844.6 km
Apogee: 855.1 km
Inclination: 71.0 °
Period: 101.8 minutes
Semi major axis: 7220 km
RCS: 11.2405 m2 (large)
Launch date: November 23, 1988
Source: Commonwealth of Independent States (former USSR) (CIS)
Launch site: TYURATAM MISSILE AND SPACE COMPLEX (TTMTR)
Your satellite tracking list
Your tracking list is empty




NASA's NSSDC Master Catalog

Two Line Element Set (TLE):
1 19649U 88102A   23339.54889759 -.00000112  00000-0 -33505-4 0  9999
2 19649  70.9991 147.0683 0007265 307.7042  52.3421 14.14892356808419
Source of the keplerian elements: AFSPC